timestamp,wind_dir_avg,wind_spd_avg,wind_spd_max_dir,wind_spd_gust,battery_voltage,lat,long
2023-02-04 00:04:00+00:00,251.0,9.5,253.0,10.83,12.09,47.59359,-54.27349
2023-02-04 00:14:00+00:00,249.0,9.44,251.0,10.86,12.09,47.59359,-54.27349
2023-02-04 00:24:00+00:00,251.0,10.09,252.0,12.66,12.09,47.59359,-54.27349
2023-02-04 00:34:00+00:00,252.0,12.03,258.0,17.14,12.09,47.59359,-54.27349
2023-02-04 00:44:00+00:00,253.0,15.29,250.0,19.24,12.09,47.59359,-54.27349
2023-02-04 00:54:00+00:00,252.0,17.77,253.0,19.7,12.09,47.59359,-54.27349
2023-02-04 01:04:00+00:00,256.0,17.03,254.0,19.42,12.09,47.59359,-54.27349
2023-02-04 01:14:00+00:00,257.0,16.37,260.0,19.27,12.09,47.59359,-54.27349
2023-02-04 01:24:00+00:00,255.0,17.95,258.0,22.61,12.09,47.59359,-54.27349
2023-02-04 01:34:00+00:00,259.0,17.49,253.0,19.44,12.09,47.59359,-54.27349
2023-02-04 01:44:00+00:00,257.0,16.77,262.0,18.83,12.09,47.59359,-54.27349
2023-02-04 01:54:00+00:00,255.0,14.7,259.0,18.63,12.09,47.59359,-54.27349
2023-02-04 02:04:00+00:00,241.0,15.12,241.0,17.49,12.09,47.59359,-54.27349
2023-02-04 02:14:00+00:00,256.0,15.64,263.0,16.76,12.09,47.59359,-54.27349
2023-02-04 02:24:00+00:00,252.0,18.55,254.0,21.55,12.09,47.59359,-54.27349
2023-02-04 02:34:00+00:00,254.0,20.9,253.0,25.46,12.09,47.59359,-54.27349
2023-02-04 02:44:00+00:00,253.0,20.28,244.0,22.91,12.09,47.59359,-54.27349
2023-02-04 02:54:00+00:00,261.0,19.72,258.0,22.33,12.09,47.59359,-54.27349
2023-02-04 03:04:00+00:00,253.0,20.44,249.0,22.61,12.09,47.59359,-54.27349
2023-02-04 03:14:00+00:00,258.0,20.15,265.0,22.88,12.09,47.59359,-54.27349
2023-02-04 03:24:00+00:00,266.0,17.1,266.0,21.04,12.09,47.59359,-54.27349
2023-02-04 03:34:00+00:00,267.0,14.45,269.0,20.64,12.09,47.59359,-54.27349
2023-02-04 03:44:00+00:00,253.0,14.86,261.0,18.48,12.09,47.59359,-54.27349
2023-02-04 03:54:00+00:00,268.0,14.65,265.0,18.37,12.09,47.59359,-54.27349
2023-02-04 04:04:00+00:00,265.0,15.27,270.0,19.89,12.09,47.59359,-54.27349
2023-02-04 04:14:00+00:00,261.0,15.77,263.0,23.16,12.09,47.59359,-54.27349
2023-02-04 04:24:00+00:00,274.0,14.03,283.0,16.54,12.09,47.59359,-54.27349
2023-02-04 04:34:00+00:00,257.0,14.24,258.0,17.38,12.09,47.59359,-54.27349
2023-02-04 04:44:00+00:00,268.0,15.25,275.0,18.31,12.09,47.59359,-54.27349
2023-02-04 04:54:00+00:00,263.0,14.37,262.0,19.95,12.09,47.59359,-54.27349
2023-02-04 05:04:00+00:00,262.0,14.23,272.0,16.1,12.09,47.59359,-54.27349
2023-02-04 05:14:00+00:00,259.0,14.17,263.0,16.18,12.09,47.59359,-54.27349
2023-02-04 05:24:00+00:00,266.0,14.39,270.0,16.16,12.09,47.59359,-54.27349
2023-02-04 05:34:00+00:00,260.0,14.14,263.0,16.09,12.09,47.59359,-54.27349
2023-02-04 05:44:00+00:00,264.0,14.95,257.0,16.56,12.09,47.59359,-54.27349
2023-02-04 05:54:00+00:00,262.0,15.07,264.0,19.34,12.09,47.59359,-54.27349
2023-02-04 06:04:00+00:00,256.0,13.47,252.0,15.07,12.09,47.59359,-54.27349
2023-02-04 06:14:00+00:00,258.0,13.4,261.0,15.89,12.09,47.59359,-54.27349
2023-02-04 06:24:00+00:00,258.0,15.34,261.0,17.78,12.09,47.59359,-54.27349
2023-02-04 06:34:00+00:00,258.0,15.31,262.0,18.57,12.09,47.59359,-54.27349
2023-02-04 06:44:00+00:00,249.0,15.73,241.0,19.19,12.09,47.59359,-54.27349
2023-02-04 06:54:00+00:00,255.0,14.8,264.0,21.35,12.09,47.59359,-54.27349
2023-02-04 07:04:00+00:00,255.0,12.58,258.0,17.46,12.09,47.59359,-54.27349
2023-02-04 07:14:00+00:00,249.0,14.77,253.0,18.87,12.09,47.59359,-54.27349
2023-02-04 07:24:00+00:00,250.0,16.59,252.0,23.32,12.09,47.59359,-54.27349
2023-02-04 07:34:00+00:00,244.0,16.93,245.0,19.19,12.09,47.59359,-54.27349
2023-02-04 07:44:00+00:00,243.0,16.94,247.0,21.27,12.09,47.59359,-54.27349
2023-02-04 07:54:00+00:00,249.0,16.19,250.0,20.04,12.09,47.59359,-54.27349
2023-02-04 08:04:00+00:00,245.0,16.58,238.0,18.73,12.09,47.59359,-54.27349
2023-02-04 08:14:00+00:00,248.0,16.1,238.0,20.04,12.01,47.59359,-54.27349
2023-02-04 08:24:00+00:00,247.0,16.54,240.0,19.18,12.01,47.59359,-54.27349
2023-02-04 08:34:00+00:00,239.0,16.96,242.0,19.23,12.01,47.59359,-54.27349
2023-02-04 08:44:00+00:00,246.0,16.05,244.0,19.34,12.01,47.59359,-54.27349
2023-02-04 08:54:00+00:00,251.0,16.44,244.0,20.79,12.01,47.59359,-54.27349
2023-02-04 09:04:00+00:00,247.0,16.91,241.0,21.95,12.01,47.59359,-54.27349
